Home   Weather   Penrith   Past weeks
Flag for Australia

Past Weather in Penrith, New South Wales, Australia — Yesterday and Last 2 Weeks

Now
84 °F

Mostly cloudy.


Feels Like: 82 °F
Forecast: 81 / 64 °F
Wind: 6 mph from Northeast

Location: Richmond Aus-Afb

Current Time: Dec 7, 2019 at 2:55:14 pm

Latest Report: Dec 7, 2019 at 2:00 pm


Visibility: 2 mi

Pressure: 29.80 "Hg

Humidity: 25%

Dew Point: 45 °F

Location of PenrithLocation

Past Weather in Penrith — Graph

°F

Penrith Temperature Yesterday

Maximum temperature yesterday: 95 °F (at 2:22 pm)
Minimum temperature yesterday: 59 °F (at 6:00 am)
Average temperature yesterday: 78 °F

High & Low Weather Summary for the Past Weeks

 TemperatureHumidityPressure
High97 °F (Nov 26, 12:00 pm)100% (Nov 22, 11:19 pm)30.12 "Hg (Nov 22, 11:19 pm)
Low48 °F (Nov 27, 5:00 am)6% (Dec 6, 3:30 pm)29.36 "Hg (Dec 2, 3:30 am)
Average72 °F57%29.78 "Hg
* Reported Nov 22 1:00 pm — Dec 7 1:30 pm, Penrith. Weather by CustomWeather, © 2019

Note: Actual official high and low records may vary slightly from our data, if they occured in-between our weather recording intervals... More about our weather records

Penrith Weather History for the Previous 24 Hours

Scroll right to see more
 ConditionsComfort  
Time TempWeatherWind HumidityBarometerVisibility
1:30 pm
Sat, Dec 7
84 °FOvercast.8 mph27%29.80 "Hg2 mi
1:00 pm84 °FOvercast.7 mph27%29.83 "Hg3 mi
12:30 pm82 °FMostly cloudy.8 mph28%29.83 "Hg3 mi
12:00 pm82 °FMostly cloudy.8 mph35%29.86 "Hg3 mi
11:00 am77 °FMostly cloudy.9 mph51%29.86 "Hg3 mi
10:30 am75 °FOvercast.8 mph57%29.89 "Hg4 mi
10:00 am73 °FCloudy.6 mph65%29.89 "HgN/A
9:30 am72 °FBroken clouds.7 mph69%29.92 "HgN/A
9:00 am70 °FMore clouds than sun.2 mph73%29.92 "HgN/A
8:30 am70 °FOvercast.2 mph73%29.92 "HgN/A
8:00 am66 °FOvercast.3 mph83%29.92 "HgN/A
7:30 am64 °FMostly cloudy.No wind94%29.89 "HgN/A
7:00 am63 °FOvercast.No wind94%29.89 "HgN/A
6:30 am59 °FMore clouds than sun.No wind100%29.89 "HgN/A
6:00 am59 °FOvercast.No wind94%29.89 "HgN/A
5:30 am59 °FOvercast.5 mph100%29.86 "Hg6 mi
5:00 am61 °FMostly cloudy.5 mph100%29.86 "HgN/A
4:30 am61 °FMostly cloudy.No wind94%29.86 "HgN/A
4:00 am63 °FMostly cloudy.No wind88%29.86 "HgN/A
3:30 am63 °FOvercast.No wind88%29.86 "HgN/A
3:05 am64 °FOvercast.No wind88%29.86 "HgN/A
3:00 am64 °FOvercast.No wind88%29.86 "HgN/A
2:31 am64 °FOvercast.1 mph83%29.86 "Hg3 mi
2:00 am66 °FPassing clouds.5 mph83%29.86 "HgN/A
1:30 am66 °FPassing clouds.5 mph83%29.86 "HgN/A
1:00 am68 °FOvercast.6 mph78%29.86 "HgN/A
12:30 am68 °FPassing clouds.7 mph78%29.86 "HgN/A
12:00 am68 °FPassing clouds.7 mph78%29.86 "HgN/A
11:30 pm
Fri, Dec 6
70 °FMostly cloudy.8 mph78%29.86 "HgN/A
11:00 pm70 °FMostly cloudy.7 mph78%29.86 "HgN/A
10:30 pm70 °FOvercast.8 mph78%29.86 "HgN/A
10:02 pm70 °FOvercast.8 mph78%29.83 "HgN/A
9:42 pm70 °FOvercast.12 mph78%29.83 "Hg3 mi
9:30 pm70 °FPassing clouds.10 mph78%29.83 "HgN/A
9:00 pm70 °FClear.13 mph78%29.80 "HgN/A
8:30 pm72 °FClear.17 mph73%29.77 "HgN/A
8:00 pm73 °FClear.22 mph69%29.74 "HgN/A
7:30 pm88 °FSunny.14 mph10%29.68 "HgN/A
7:00 pm90 °FSunny.17 mph9%29.65 "HgN/A
6:30 pm91 °FSunny.17 mph9%29.65 "HgN/A
6:00 pm91 °FSunny.17 mph8%29.62 "HgN/A
5:30 pm93 °FSunny.17 mph8%29.62 "HgN/A
5:00 pm95 °FSunny.15 mph7%29.62 "HgN/A
4:30 pm95 °FSunny.22 mph7%29.62 "HgN/A
4:06 pm95 °FSunny.20 mph6%29.62 "HgN/A
4:00 pm95 °FSunny.22 mph6%29.62 "HgN/A
3:30 pm95 °FSunny.22 mph6%29.62 "HgN/A
3:13 pm95 °FSunny.23 mph7%29.62 "HgN/A
3:00 pm93 °FSunny.22 mph7%29.62 "HgN/A
2:30 pm91 °FSunny.24 mph8%29.62 "HgN/A
2:22 pm95 °FSunny.21 mph7%29.62 "HgN/A
Weather by CustomWeather, © 2019

See weather overview

Advertising